Home > Time Zones > World Clock > Weather > Iran > Rasht > Past weeks

Flag for Iran Weather past 2 weeks in Rasht, Iran

Now
88 °F

Sunny.


Feels Like: 94 °F
Forecast: 70 / 91 °F
Wind: 7 mph from Northeast

Location: Rasht Airport

Current Time: Aug 23, 2014 at 6:51:55 PM

Latest Report: Aug 23, 2014 at 6:30 PM


Visibility: 10 mi

Pressure: 29.83 "Hg

Humidity: 59%

Dew point: 72 °F

Location of RashtLocation

Historic Weather in Rasht — Graph

°F

Rasht temperature yesterday

Maximum temperature yesterday: 91 °F (at 1:30 PM)
Minimum temperature yesterday: 77 °F (at 7:00 AM)
Average temperature yesterday: 85 °F

Past Weeks' High & Low Weather Summary

 TemperatureHumidityPressure
High102 °F (Aug 8, 8:00 PM)100% (Aug 16, 6:30 AM)29.98 "Hg (Aug 16, 6:30 AM)
Low68 °F (Aug 10, 6:30 AM)28% (Aug 12, 1:30 PM)29.65 "Hg (Aug 18, 4:30 PM)
Average86 °F61%29.80 "Hg
* Reported Aug 8 5:30 PM — Aug 23 5:30 PM, Rasht, Weather by CustomWeather, © 2014

Note: Actual official high and low records may vary slightly from our data, if they occured in-between our weather recording intervals... More about our weather records

Advertising

Rasht weather history for previous 24 hours

 ConditionsComfort  
Time TempWeatherWind HumidityBarometerVisibility
5:30 PM
Aug 23
90 °FSunny.9 mph52%29.86 "Hg10 mi
5:00 PM90 °FSunny.7 mph49%29.86 "Hg10 mi
4:30 PM90 °FSunny.7 mph49%29.86 "Hg10 mi
4:00 PM91 °FPassing clouds.7 mph49%29.86 "HgN/A
3:30 PM91 °FPassing clouds.7 mph49%29.86 "HgN/A
3:00 PM90 °FPassing clouds.9 mph55%29.89 "HgN/A
2:30 PM90 °FPassing clouds.9 mph55%29.89 "HgN/A
2:00 PM90 °FPassing clouds.5 mph59%29.89 "HgN/A
1:30 PM90 °FPassing clouds.5 mph59%29.89 "HgN/A
1:00 PM90 °FScattered clouds.9 mph59%29.92 "HgN/A
12:30 PM90 °FScattered clouds.9 mph59%29.92 "HgN/A
12:00 PM88 °FScattered clouds.7 mph59%29.92 "HgN/A
11:30 AM88 °FScattered clouds.7 mph59%29.92 "HgN/A
11:00 AM84 °FScattered clouds.5 mph66%29.92 "HgN/A
10:30 AM84 °FScattered clouds.5 mph66%29.92 "HgN/A
10:00 AM84 °FScattered clouds.5 mph66%29.92 "Hg5 mi
9:30 AM84 °FScattered clouds.5 mph66%29.92 "Hg5 mi
9:00 AM79 °FScattered clouds.5 mph79%29.92 "Hg5 mi
8:30 AM79 °FScattered clouds.5 mph79%29.92 "Hg5 mi
8:00 AM77 °FPassing clouds.5 mph79%29.92 "Hg5 mi
7:30 AM73 °FPassing clouds.5 mph94%29.92 "Hg5 mi
7:00 AM73 °FPassing clouds.No wind94%29.89 "Hg4 mi
6:30 AM73 °FFog.No wind94%29.89 "Hg2 mi
5:30 AM73 °FClear.No wind94%29.89 "Hg4 mi
11:30 PM
Aug 22
77 °FClear.No wind89%29.89 "Hg5 mi
9:30 PM79 °FPassing clouds.No wind84%29.89 "HgN/A
8:30 PM79 °FPassing clouds.5 mph84%29.86 "HgN/A
8:00 PM81 °FPassing clouds.5 mph79%29.86 "HgN/A
7:30 PM84 °FPassing clouds.5 mph70%29.86 "HgN/A
7:00 PM84 °FSunny.5 mph66%29.83 "Hg10 mi
6:30 PM86 °FSunny.5 mph62%29.83 "Hg10 mi
6:00 PM88 °FSunny.7 mph59%29.83 "Hg10 mi
Weather by CustomWeather, © 2014

See weather overviewHow to use our weather pages